Weather Roundup
Issued by NWS Springfield, MO

Home | Current Version | Previous Version | Text Only | Print | Product List | Glossary On
Versions: 1 2 3 4 5 6 7 8 9 10 11 12 13 14 15 16 17 18 19 20 21 22 23 24 25 26 27 28 29 30 31 32 33 34 35 36 37 38 39 40 41 42 43 44 45 46 47 48 49 50
000
NZUS99 KSGF 191707
HRRSGF

HOURLY WEATHER
NATIONAL WEATHER SERVICE SPRINGFIELD MO
1100 AM CST FRI JAN 19 2018

......SGF CWA......

CITY           SKY/WX    TMP DP  RH WIND       PRES   REMARKS
SPRINGFIELD    SUNNY     41  23  48 S13       30.06F
JOPLIN         CLOUDY    41  25  53 S14       30.06F
WEST PLAINS    SUNNY     43  17  35 SW9       30.14S
ROLLA          SUNNY     44  19  36 S16       30.06F
OSAGE BEACH    CLOUDY    45  22  40 SW13G22   30.06F
BRANSON        MOSUNNY   46  23  39 SW12G18   30.11F

......SURROUNDING SGF CWA......

CITY           SKY/WX    TMP DP  RH WIND       PRES   REMARKS
CHANUTE        CLOUDY    41  22  46 S16       30.02S
PARSONS        CLOUDY    40  22  48 S10       30.04S WCI  33
COFFEYVILLE    CLOUDY    42  23  46 S15       30.05R
EMPORIA        CLOUDY    41  21  44 S17       29.93F
GROVE OK       SUNNY     45  27  49 S13       30.10F
ROGERS AR      SUNNY     45  22  40 SW14G20   30.11S
SILOAM SPRINGS SUNNY     45  24  43 S16       30.11F
HARRISON AR    SUNNY     49  24  37 SW14G20   30.11F
NEAR YELLVILLE SUNNY     44  17  33 S7        30.16F

......KANSAS AND MISSOURI......

CITY           SKY/WX    TMP DP  RH WIND       PRES   REMARKS
KANSAS CTY INT CLOUDY    39  21  48 SW15      29.92S WCI  31
DOWNTOWN KC    CLOUDY    42  21  43 SW15      29.94S
COLUMBIA       CLOUDY    45  20  36 S17G25    30.01F
SEDALIA        CLOUDY    43  24  47 SW20G26   30.00F
ST JOSEPH      CLOUDY    39  25  57 S14       29.90F WCI  31
ST LOUIS       MOSUNNY   45  16  31 SW13      30.06F
SPIRIT OF STL  SUNNY     47  17  30 SW10G21   30.05F
KIRKSVILLE     CLOUDY    38  24  57 SW13      29.92R WCI  30
WICHITA        CLOUDY    42  20  41 S16       29.94F
TOPEKA         CLOUDY    38  23  55 SW14G20   29.92F WCI  30
OLATHE         CLOUDY    37  21  52 S14G23    29.95S WCI  28

......TENNESSEE......

CITY           SKY/WX    TMP DP  RH WIND       PRES   REMARKS
MEMPHIS        PTSUNNY   41  21  44 S10G17    30.30F
NASHVILLE      FAIR      39  16  39 SW8       30.31F WCI  33

......ARKANSAS.......

CITY           SKY/WX    TMP DP  RH WIND       PRES   REMARKS
FAYETTEVILLE   SUNNY     46  26  45 S13G21    30.13F
FT SMITH       SUNNY     41  20  43 NE6       30.19F
LITTLE ROCK    CLOUDY    39  20  46 SW7       30.28F WCI  34

......OKLAHOMA.......

CITY           SKY/WX    TMP DP  RH WIND       PRES   REMARKS
TULSA          PTSUNNY   45  24  43 S15       30.06F
PONCA CITY     CLOUDY    44  21  40 S8        30.01R
MCALESTER      MOSUNNY   47  31  53 SW18G28   30.15F
OKLAHOMA CITY  CLOUDY    44  22  41 S21       30.04F

......IOWA............

CITY           SKY/WX    TMP DP  RH WIND       PRES   REMARKS
DES MOINES     CLOUDY    39  25  57 SW16      29.76F WCI  30
QUAD CITIES    FAIR      38  23  55 SW14      29.85F WCI  30

......ILLINOIS........

CITY           SKY/WX    TMP DP  RH WIND       PRES   REMARKS
QUINCY         CLOUDY    40  20  44 S15       29.94F WCI  32
CHICAGO        PTSUNNY   34  20  56 SW17G24   29.88F WCI  23



USA.gov is the U.S. government's official web portal to all federal, state and local government web resources and services.